Powrót do katalogu

N-1 R/B

AktywnyLEO
NORAD 10675·ROCKET BODY·🇯🇵 Japan

Wystrzelony Feb 16, 1978 z Tanegashima Space Center

Loading…

Następne Przeloty (najbliższe 24 godziny)

TLE

ŚwieżeSource: Space-Track

Epoka: Sep 14, 2026, 07:48 UTC

1 10675U 78018B   26257.32535554  .00000041  00000-0  14505-3 0  9990
2 10675  69.3621  19.8690 0161688 350.4564  28.3481 13.44897665384002

Śledź N-1 R/B w czasie rzeczywistym z AllMySat

Download on the App Store